Find Yaogan 31 hao 01 zu 03 xing

NORAD ID: 43277 Int'l Des: 2018-034 Owner: ZLZB Country: CN Constellation: yaogan operational
LEO

現在のビュー

3D地球を読み込み中...

Yaogan 31 hao 01 zu 03 xingについて

説明を読み込み中...

次回通過

Passes for default location (London). Set your location on the main map for personalized predictions.

高度履歴

Loading altitude history...

軌道要素

1 43277U 18034C 26151.19514087 -.00000056 00000-0 46734-4 0 9999
2 43277 63.3930 134.3697 0274072 7.0528 353.4232 13.45441676399954
Epoch: May 31, 2026 • Age: 9 hours

現在のステータス

高度 1135.6 km
速度 7.27 km/s
衛星直下点 57.69°N, 160.38°E
打ち上げ日 Apr 10, 2018
運用期間 8.1 years
タイプ military

技術仕様

分類 Payload
質量 500.00 kg
乾燥質量 500.00 kg
総質量 500.00 kg
長さ 0.50 m
直径 0.50 m
スパン 1.00 m
形状 Box + 2 Pan
製造者 DFHZ
フェーズステータス In Orbit
所有者/国 ZLZB/CN

Most Searched